| time (UTC) | temp C | wind direction | speed KPH | gust KPH | rain 1hr cm | rain 24hr cm | rain mn cm | humidity % | barometer mb |
| 20260506103533 | 10 | 0 | 0.0 | 3.2 | 0.00 | 0.00 | 0.00 | 92 | 1016.9 |
| 20260506103047 | 10 | 0 | 0.0 | 3.2 | 0.00 | 0.00 | 0.00 | 92 | 1016.9 |
| 20260506102534 | 10 | 343 | 0.0 | 3.2 | 0.00 | 0.00 | 0.00 | 92 | 1016.8 |
| 20260506102037 | 10 | 0 | 0.0 | 1.6 | 0.00 | 0.00 | 0.00 | 91 | 1016.8 |
| 20260506101544 | 11 | 0 | 0.0 | 1.6 | 0.00 | 0.00 | 0.00 | 92 | 1016.8 |
| 20260506101034 | 11 | 0 | 0.0 | 1.6 | 0.00 | 0.00 | 0.00 | 92 | 1016.8 |
| 20260506100534 | 11 | 0 | 0.0 | 3.2 | 0.00 | 0.00 | 0.00 | 92 | 1016.9 |
| 20260506100044 | 11 | 0 | 0.0 | 3.2 | 0.00 | 0.00 | 0.00 | 92 | 1017.0 |
| 20260506095534 | 11 | 0 | 0.0 | 3.2 | 0.00 | 0.00 | 0.00 | 92 | 1016.9 |
| 20260506095037 | 11 | 0 | 0.0 | 3.2 | 0.00 | 0.00 | 0.00 | 92 | 1017.0 |
| 20260506094541 | 11 | 343 | 0.0 | 3.2 | 0.00 | 0.00 | 0.00 | 92 | 1017.0 |
| 20260506094039 | 11 | 0 | 0.0 | 3.2 | 0.00 | 0.00 | 0.00 | 92 | 1017.0 |
| 20260506093534 | 11 | 342 | 0.0 | 4.8 | 0.00 | 0.00 | 0.00 | 92 | 1017.1 |
| 20260506093051 | 11 | 332 | 1.6 | 4.8 | 0.00 | 0.00 | 0.00 | 92 | 1017.2 |
| 20260506092534 | 11 | 344 | 0.0 | 4.8 | 0.00 | 0.00 | 0.00 | 92 | 1017.1 |
| 20260506092034 | 11 | 333 | 0.0 | 6.4 | 0.00 | 0.00 | 0.00 | 93 | 1017.2 |
| 20260506091544 | 11 | 0 | 0.0 | 6.4 | 0.00 | 0.00 | 0.00 | 93 | 1017.3 |
| 20260506091034 | 11 | 341 | 1.6 | 6.4 | 0.00 | 0.00 | 0.00 | 93 | 1017.3 |
| 20260506090534 | 11 | 345 | 1.6 | 6.4 | 0.00 | 0.00 | 0.00 | 93 | 1017.2 |
| 20260506090045 | 11 | 336 | 0.0 | 6.4 | 0.00 | 0.00 | 0.00 | 93 | 1017.3 |
| 20260506085534 | 11 | 342 | 0.0 | 6.4 | 0.00 | 0.00 | 0.00 | 93 | 1017.3 |
| 20260506085035 | 11 | 342 | 1.6 | 6.4 | 0.00 | 0.00 | 0.00 | 93 | 1017.2 |
| 20260506084545 | 11 | 0 | 0.0 | 6.4 | 0.00 | 0.00 | 0.00 | 93 | 1017.3 |
| 20260506084036 | 11 | 0 | 1.6 | 6.4 | 0.00 | 0.00 | 0.00 | 93 | 1017.5 |
| 20260506083535 | 11 | 0 | 1.6 | 4.8 | 0.00 | 0.00 | 0.00 | 93 | 1017.4 |
| 20260506083042 | 11 | 0 | 0.0 | 3.2 | 0.00 | 0.00 | 0.00 | 93 | 1017.4 |
| 20260506082536 | 11 | 335 | 0.0 | 4.8 | 0.00 | 0.00 | 0.00 | 92 | 1017.4 |
| 20260506082035 | 11 | 0 | 0.0 | 4.8 | 0.00 | 0.00 | 0.00 | 92 | 1017.4 |
| 20260506081549 | 11 | 0 | 1.6 | 6.4 | 0.00 | 0.00 | 0.00 | 93 | 1017.4 |
| 20260506081034 | 11 | 0 | 0.0 | 6.4 | 0.00 | 0.00 | 0.00 | 93 | 1017.5 |
| 20260506080534 | 11 | 0 | 1.6 | 6.4 | 0.00 | 0.00 | 0.00 | 93 | 1017.5 |
| 20260506073043 | 11 | 0 | 0.0 | 3.2 | 0.00 | 0.00 | 0.00 | 94 | 1017.3 |
| 20260506072534 | 11 | 89 | 0.0 | 3.2 | 0.00 | 0.00 | 0.00 | 94 | 1017.2 |
| 20260506072034 | 11 | 0 | 0.0 | 3.2 | 0.00 | 0.00 | 0.00 | 94 | 1017.3 |
| 20260506071545 | 11 | 0 | 0.0 | 4.8 | 0.00 | 0.00 | 0.00 | 93 | 1017.1 |
| 20260506071038 | 11 | 0 | 0.0 | 4.8 | 0.00 | 0.00 | 0.00 | 93 | 1017.2 |
| 20260506070536 | 11 | 89 | 0.0 | 4.8 | 0.00 | 0.00 | 0.00 | 93 | 1017.2 |
| 20260506062034 | 10 | 89 | 0.0 | 3.2 | 0.00 | 0.00 | 0.00 | 95 | 1016.5 |
| 20260506061544 | 10 | 0 | 0.0 | 1.6 | 0.00 | 0.00 | 0.00 | 94 | 1016.6 |
| 20260506061035 | 10 | 0 | 0.0 | 1.6 | 0.00 | 0.00 | 0.00 | 93 | 1016.6 |
| 20260506060536 | 10 | 0 | 0.0 | 3.2 | 0.00 | 0.00 | 0.00 | 93 | 1016.5 |
| 20260506051036 | 11 | 0 | 0.0 | 3.2 | 0.00 | 0.00 | 0.00 | 91 | 1016.1 |
| 20260506050536 | 11 | 0 | 0.0 | 3.2 | 0.00 | 0.00 | 0.00 | 90 | 1016.1 |
| 20260506045036 | 11 | 0 | 0.0 | 0.0 | 0.00 | 0.00 | 0.00 | 89 | 1016.1 |
| 20260506044543 | 11 | 0 | 0.0 | 1.6 | 0.00 | 0.00 | 0.00 | 89 | 1016.0 |
| 20260506044035 | 11 | 0 | 0.0 | 3.2 | 0.00 | 0.00 | 0.00 | 89 | 1015.9 |
| 20260506043537 | 12 | 0 | 0.0 | 3.2 | 0.00 | 0.00 | 0.00 | 88 | 1015.9 |
| 20260506043043 | 12 | 89 | 0.0 | 3.2 | 0.00 | 0.00 | 0.00 | 88 | 1015.9 |
| 20260506042534 | 12 | 0 | 0.0 | 3.2 | 0.00 | 0.00 | 0.00 | 88 | 1015.8 |
| 20260506042035 | 12 | 89 | 0.0 | 3.2 | 0.00 | 0.00 | 0.00 | 88 | 1015.8 |
| 20260506041546 | 12 | 89 | 0.0 | 3.2 | 0.00 | 0.00 | 0.00 | 88 | 1015.8 |
| 20260506041034 | 12 | 89 | 0.0 | 9.7 | 0.00 | 0.00 | 0.00 | 88 | 1015.8 |
| 20260506040534 | 12 | 89 | 0.0 | 9.7 | 0.00 | 0.00 | 0.00 | 88 | 1015.8 |
| 20260506040046 | 12 | 106 | 1.6 | 9.7 | 0.00 | 0.00 | 0.00 | 88 | 1015.6 |
| 20260506035535 | 12 | 86 | 1.6 | 6.4 | 0.00 | 0.00 | 0.00 | 87 | 1015.5 |
| 20260506035035 | 12 | 0 | 1.6 | 6.4 | 0.00 | 0.00 | 0.00 | 87 | 1015.4 |
| 20260506034543 | 12 | 0 | 1.6 | 6.4 | 0.00 | 0.00 | 0.00 | 86 | 1015.3 |
| 20260506034036 | 12 | 0 | 1.6 | 4.8 | 0.00 | 0.00 | 0.00 | 86 | 1015.2 |
| 20260506033535 | 13 | 0 | 0.0 | 4.8 | 0.00 | 0.00 | 0.00 | 85 | 1015.1 |
| 20260506033039 | 13 | 99 | 3.2 | 4.8 | 0.00 | 0.00 | 0.00 | 84 | 1015.0 |
| 20260506032535 | 13 | 99 | 0.0 | 3.2 | 0.00 | 0.00 | 0.00 | 82 | 1015.0 |
| 20260506032035 | 13 | 0 | 0.0 | 3.2 | 0.00 | 0.00 | 0.00 | 81 | 1014.9 |
| 20260506031543 | 14 | 0 | 1.6 | 3.2 | 0.00 | 0.00 | 0.00 | 81 | 1014.8 |
| 20260506031035 | 14 | 0 | 0.0 | 1.6 | 0.00 | 0.00 | 0.00 | 80 | 1014.7 |
| 20260506030535 | 15 | 0 | 0.0 | 4.8 | 0.00 | 0.00 | 0.00 | 79 | 1014.7 |
| 20260506030044 | 15 | 0 | 0.0 | 4.8 | 0.00 | 0.00 | 0.00 | 79 | 1014.7 |
| 20260506025534 | 15 | 99 | 1.6 | 6.4 | 0.00 | 0.00 | 0.00 | 79 | 1014.6 |
| 20260506025035 | 15 | 99 | 0.0 | 6.4 | 0.00 | 0.00 | 0.00 | 78 | 1014.5 |
| 20260506024551 | 15 | 99 | 1.6 | 9.7 | 0.00 | 0.00 | 0.00 | 77 | 1014.4 |
| 20260506024035 | 16 | 99 | 3.2 | 9.7 | 0.00 | 0.00 | 0.00 | 77 | 1014.2 |
| 20260506023535 | 16 | 99 | 3.2 | 9.7 | 0.00 | 0.00 | 0.00 | 76 | 1014.3 |
| 20260506023052 | 16 | 86 | 0.0 | 4.8 | 0.00 | 0.00 | 0.00 | 75 | 1014.2 |
| 20260506022536 | 16 | 0 | 0.0 | 4.8 | 0.00 | 0.00 | 0.00 | 75 | 1014.2 |
| 20260506022035 | 16 | 0 | 0.0 | 6.4 | 0.00 | 0.00 | 0.00 | 75 | 1014.1 |
| 20260506021548 | 16 | 219 | 0.0 | 6.4 | 0.00 | 0.00 | 0.00 | 74 | 1014.0 |
| 20260506021035 | 17 | 232 | 1.6 | 4.8 | 0.00 | 0.00 | 0.00 | 74 | 1014.0 |
| 20260506020535 | 17 | 0 | 1.6 | 4.8 | 0.00 | 0.00 | 0.00 | 73 | 1014.1 |
| 20260506020053 | 17 | 142 | 1.6 | 9.7 | 0.00 | 0.00 | 0.00 | 73 | 1014.1 |
| 20260506015535 | 17 | 200 | 1.6 | 9.7 | 0.00 | 0.00 | 0.00 | 73 | 1014.0 |
| 20260506015035 | 17 | 0 | 1.6 | 9.7 | 0.00 | 0.00 | 0.00 | 73 | 1013.9 |
| 20260506014544 | 17 | 0 | 0.0 | 6.4 | 0.00 | 0.00 | 0.00 | 73 | 1013.8 |
| 20260506014035 | 17 | 203 | 1.6 | 11.3 | 0.00 | 0.00 | 0.00 | 73 | 1013.9 |
| 20260506013535 | 17 | 194 | 1.6 | 11.3 | 0.00 | 0.00 | 0.00 | 73 | 1013.8 |
| 20260506013042 | 17 | 151 | 3.2 | 11.3 | 0.00 | 0.00 | 0.00 | 73 | 1013.8 |
| 20260506012535 | 17 | 220 | 3.2 | 9.7 | 0.00 | 0.00 | 0.00 | 74 | 1013.9 |
| 20260506012035 | 17 | 213 | 1.6 | 12.9 | 0.00 | 0.00 | 0.00 | 73 | 1014.0 |
| 20260506011602 | 17 | 165 | 3.2 | 12.9 | 0.00 | 0.00 | 0.00 | 73 | 1013.8 |
| 20260506011036 | 17 | 0 | 3.2 | 12.9 | 0.00 | 0.00 | 0.00 | 72 | 1013.9 |
| 20260506010535 | 18 | 183 | 3.2 | 12.9 | 0.00 | 0.00 | 0.00 | 72 | 1013.8 |
| 20260506010047 | 17 | 161 | 3.2 | 12.9 | 0.00 | 0.00 | 0.00 | 72 | 1013.9 |
| 20260506005536 | 17 | 123 | 3.2 | 12.9 | 0.00 | 0.00 | 0.00 | 73 | 1013.7 |
| 20260506005036 | 17 | 0 | 6.4 | 19.3 | 0.00 | 0.00 | 0.00 | 73 | 1014.0 |
| 20260506004558 | 17 | 0 | 8.0 | 19.3 | 0.00 | 0.00 | 0.00 | 73 | 1013.8 |
| 20260506004035 | 17 | 232 | 8.0 | 17.7 | 0.00 | 0.00 | 0.00 | 75 | 1013.8 |
| 20260506003535 | 16 | 0 | 4.8 | 16.1 | 0.00 | 0.00 | 0.00 | 75 | 1013.6 |
| 20260506003044 | 16 | 199 | 6.4 | 17.7 | 0.00 | 0.00 | 0.00 | 75 | 1013.6 |
| 20260506002535 | 17 | 209 | 6.4 | 17.7 | 0.00 | 0.00 | 0.00 | 74 | 1013.7 |
| 20260506002036 | 17 | 264 | 6.4 | 19.3 | 0.00 | 0.00 | 0.00 | 74 | 1013.6 |
| 20260506001544 | 17 | 214 | 8.0 | 19.3 | 0.00 | 0.00 | 0.00 | 73 | 1013.6 |
| 20260506001035 | 17 | 248 | 6.4 | 17.7 | 0.00 | 0.00 | 0.00 | 72 | 1013.6 |
| 20260506000535 | 18 | 226 | 8.0 | 19.3 | 0.00 | 0.00 | 0.00 | 71 | 1013.6 |
| 20260506000112 | 18 | 225 | 6.4 | 20.9 | 0.00 | 0.00 | 0.00 | 70 | 1013.5 |
| 20260505235535 | 19 | 244 | 9.7 | 20.9 | 0.00 | 0.00 | 0.00 | 68 | 1013.4 |
| 20260505235038 | 20 | 223 | 8.0 | 20.9 | 0.00 | 0.00 | 0.00 | 67 | 1013.3 |
| 20260505234548 | 20 | 236 | 6.4 | 20.9 | 0.00 | 0.00 | 0.00 | 65 | 1013.4 |
| 20260505234035 | 20 | 225 | 9.7 | 20.9 | 0.00 | 0.00 | 0.00 | 65 | 1013.3 |
| 20260505233535 | 20 | 238 | 9.7 | 22.5 | 0.00 | 0.00 | 0.00 | 66 | 1013.3 |
| 20260505233043 | 20 | 202 | 8.0 | 24.1 | 0.00 | 0.00 | 0.00 | 68 | 1013.3 |
| 20260505232536 | 19 | 221 | 8.0 | 24.1 | 0.00 | 0.00 | 0.00 | 69 | 1013.4 |
| 20260505232038 | 18 | 227 | 9.7 | 24.1 | 0.00 | 0.00 | 0.00 | 68 | 1013.4 |
| 20260505231543 | 18 | 207 | 8.0 | 24.1 | 0.00 | 0.00 | 0.00 | 68 | 1013.3 |
| 20260505231035 | 19 | 259 | 8.0 | 24.1 | 0.00 | 0.00 | 0.00 | 67 | 1013.3 |
| 20260505230535 | 19 | 236 | 8.0 | 20.9 | 0.00 | 0.00 | 0.00 | 66 | 1013.4 |
| 20260505225537 | 20 | 254 | 8.0 | 22.5 | 0.00 | 0.00 | 0.00 | 64 | 1013.4 |
| 20260505225037 | 20 | 238 | 9.7 | 22.5 | 0.00 | 0.00 | 0.00 | 62 | 1013.4 |
| 20260505224544 | 20 | 258 | 8.0 | 25.7 | 0.00 | 0.00 | 0.00 | 64 | 1013.5 |
| 20260505224034 | 20 | 257 | 11.3 | 25.7 | 0.00 | 0.00 | 0.00 | 65 | 1013.6 |
| 20260505223534 | 20 | 227 | 9.7 | 24.1 | 0.00 | 0.00 | 0.00 | 67 | 1013.6 |
| 20260505223044 | 20 | 184 | 8.0 | 20.9 | 0.00 | 0.00 | 0.00 | 67 | 1013.6 |
| 20260505222535 | 19 | 242 | 8.0 | 22.5 | 0.00 | 0.00 | 0.00 | 66 | 1013.8 |
| 20260505222035 | 19 | 229 | 9.7 | 24.1 | 0.00 | 0.00 | 0.00 | 68 | 1013.8 |
| 20260505221549 | 19 | 248 | 8.0 | 25.7 | 0.00 | 0.00 | 0.00 | 68 | 1013.7 |
| 20260505221036 | 19 | 276 | 11.3 | 25.7 | 0.00 | 0.00 | 0.00 | 66 | 1013.9 |
| 20260505220535 | 19 | 202 | 9.7 | 22.5 | 0.00 | 0.00 | 0.00 | 67 | 1013.9 |
| 20260505220044 | 18 | 191 | 9.7 | 25.7 | 0.00 | 0.00 | 0.00 | 69 | 1014.0 |
| 20260505215535 | 18 | 231 | 11.3 | 27.4 | 0.00 | 0.00 | 0.00 | 67 | 1014.0 |
| 20260505215035 | 18 | 198 | 11.3 | 27.4 | 0.00 | 0.00 | 0.00 | 66 | 1014.0 |
| 20260505214549 | 19 | 228 | 11.3 | 22.5 | 0.00 | 0.00 | 0.00 | 64 | 1014.1 |
| 20260505214035 | 20 | 246 | 8.0 | 22.5 | 0.00 | 0.00 | 0.00 | 63 | 1014.1 |
| 20260505213534 | 20 | 191 | 8.0 | 25.7 | 0.00 | 0.00 | 0.00 | 60 | 1014.1 |
| 20260505213044 | 20 | 224 | 11.3 | 25.7 | 0.00 | 0.00 | 0.00 | 61 | 1014.2 |
| 20260505212535 | 20 | 225 | 9.7 | 24.1 | 0.00 | 0.00 | 0.00 | 62 | 1014.3 |
| 20260505212035 | 19 | 262 | 8.0 | 20.9 | 0.00 | 0.00 | 0.00 | 65 | 1014.3 |
| 20260505211549 | 19 | 221 | 9.7 | 20.9 | 0.00 | 0.00 | 0.00 | 64 | 1014.2 |
| 20260505211035 | 19 | 211 | 9.7 | 20.9 | 0.00 | 0.00 | 0.00 | 66 | 1014.3 |
| 20260505210535 | 18 | 240 | 8.0 | 20.9 | 0.00 | 0.00 | 0.00 | 67 | 1014.3 |
| 20260505210051 | 18 | 250 | 8.0 | 22.5 | 0.00 | 0.00 | 0.00 | 64 | 1014.4 |
| 20260505205534 | 18 | 225 | 8.0 | 22.5 | 0.00 | 0.00 | 0.00 | 63 | 1014.4 |
| 20260505205039 | 19 | 265 | 8.0 | 20.9 | 0.00 | 0.00 | 0.00 | 63 | 1014.3 |
| 20260505204549 | 19 | 240 | 8.0 | 20.9 | 0.00 | 0.00 | 0.00 | 62 | 1014.2 |
| 20260505204037 | 19 | 265 | 9.7 | 20.9 | 0.00 | 0.00 | 0.00 | 64 | 1014.3 |
| 20260505203538 | 19 | 204 | 9.7 | 22.5 | 0.00 | 0.00 | 0.00 | 64 | 1014.2 |
| 20260505203056 | 18 | 223 | 9.7 | 22.5 | 0.00 | 0.00 | 0.00 | 65 | 1014.2 |
| 20260505202534 | 18 | 205 | 6.4 | 19.3 | 0.00 | 0.00 | 0.00 | 66 | 1014.4 |
| 20260505202037 | 18 | 234 | 9.7 | 22.5 | 0.00 | 0.00 | 0.00 | 65 | 1014.3 |
| 20260505201548 | 18 | 236 | 9.7 | 22.5 | 0.00 | 0.00 | 0.00 | 64 | 1014.3 |
| 20260505201037 | 19 | 194 | 4.8 | 24.1 | 0.00 | 0.00 | 0.00 | 61 | 1014.4 |
| 20260505200537 | 20 | 273 | 8.0 | 24.1 | 0.00 | 0.00 | 0.00 | 61 | 1014.4 |
| 20260505200047 | 20 | 242 | 8.0 | 20.9 | 0.00 | 0.00 | 0.00 | 61 | 1014.4 |
| 20260505195533 | 20 | 239 | 8.0 | 16.1 | 0.00 | 0.00 | 0.00 | 59 | 1014.5 |
| 20260505195034 | 20 | 302 | 6.4 | 22.5 | 0.00 | 0.00 | 0.00 | 62 | 1014.4 |
| 20260505194605 | 20 | 274 | 9.7 | 25.7 | 0.00 | 0.00 | 0.00 | 58 | 1014.5 |
| 20260505194035 | 20 | 256 | 9.7 | 25.7 | 0.00 | 0.00 | 0.00 | 60 | 1014.4 |
| 20260505193535 | 19 | 250 | 6.4 | 19.3 | 0.00 | 0.00 | 0.00 | 63 | 1014.5 |
| 20260505193053 | 18 | 220 | 6.4 | 22.5 | 0.00 | 0.00 | 0.00 | 65 | 1014.4 |
| 20260505192534 | 18 | 271 | 6.4 | 22.5 | 0.00 | 0.00 | 0.00 | 63 | 1014.6 |
| 20260505192038 | 18 | 256 | 6.4 | 17.7 | 0.00 | 0.00 | 0.00 | 62 | 1014.6 |
| 20260505191603 | 18 | 212 | 6.4 | 17.7 | 0.00 | 0.00 | 0.00 | 61 | 1014.6 |
| 20260505191037 | 19 | 300 | 6.4 | 16.1 | 0.00 | 0.00 | 0.00 | 59 | 1014.6 |
| 20260505190536 | 20 | 271 | 6.4 | 25.7 | 0.00 | 0.00 | 0.00 | 58 | 1014.5 |
| 20260505190049 | 20 | 230 | 4.8 | 25.7 | 0.00 | 0.00 | 0.00 | 59 | 1014.5 |
| 20260505185540 | 20 | 181 | 8.0 | 25.7 | 0.00 | 0.00 | 0.00 | 60 | 1014.5 |
| 20260505185034 | 20 | 242 | 4.8 | 20.9 | 0.00 | 0.00 | 0.00 | 61 | 1014.4 |
| 20260505184544 | 20 | 189 | 8.0 | 20.9 | 0.00 | 0.00 | 0.00 | 62 | 1014.5 |
| 20260505184037 | 20 | 213 | 8.0 | 22.5 | 0.00 | 0.00 | 0.00 | 61 | 1014.4 |
| 20260505183534 | 20 | 191 | 9.7 | 22.5 | 0.00 | 0.00 | 0.00 | 60 | 1014.4 |
| 20260505183053 | 20 | 236 | 9.7 | 16.1 | 0.00 | 0.00 | 0.00 | 58 | 1014.4 |
| 20260505182534 | 20 | 209 | 6.4 | 14.5 | 0.00 | 0.00 | 0.00 | 57 | 1014.3 |
| 20260505182036 | 20 | 202 | 4.8 | 14.5 | 0.00 | 0.00 | 0.00 | 58 | 1014.3 |
| 20260505181543 | 20 | 167 | 3.2 | 14.5 | 0.00 | 0.00 | 0.00 | 59 | 1014.3 |
| 20260505181036 | 19 | 137 | 3.2 | 14.5 | 0.00 | 0.00 | 0.00 | 59 | 1014.3 |
| 20260505180537 | 19 | 226 | 3.2 | 12.9 | 0.00 | 0.00 | 0.00 | 59 | 1014.3 |
| 20260505180056 | 19 | 284 | 4.8 | 12.9 | 0.00 | 0.00 | 0.00 | 60 | 1014.4 |
| 20260505175534 | 20 | 155 | 3.2 | 12.9 | 0.00 | 0.00 | 0.00 | 59 | 1014.2 |
| 20260505175035 | 19 | 211 | 3.2 | 12.9 | 0.00 | 0.00 | 0.00 | 61 | 1014.4 |
| 20260505174546 | 19 | 215 | 3.2 | 11.3 | 0.00 | 0.00 | 0.00 | 61 | 1014.3 |
| 20260505174035 | 19 | 229 | 3.2 | 11.3 | 0.00 | 0.00 | 0.00 | 62 | 1014.3 |
| 20260505173534 | 19 | 214 | 3.2 | 12.9 | 0.00 | 0.00 | 0.00 | 64 | 1014.3 |
| 20260505173104 | 18 | 166 | 3.2 | 12.9 | 0.00 | 0.00 | 0.00 | 65 | 1014.3 |
| 20260505172535 | 18 | 227 | 1.6 | 14.5 | 0.00 | 0.00 | 0.00 | 65 | 1014.2 |
| 20260505172034 | 18 | 178 | 3.2 | 14.5 | 0.00 | 0.00 | 0.00 | 64 | 1014.2 |
| 20260505171558 | 18 | 158 | 3.2 | 9.7 | 0.00 | 0.00 | 0.00 | 67 | 1014.1 |
| 20260505171035 | 18 | 174 | 1.6 | 9.7 | 0.00 | 0.00 | 0.00 | 69 | 1014.1 |
| 20260505170535 | 18 | 215 | 3.2 | 9.7 | 0.00 | 0.00 | 0.00 | 68 | 1014.0 |
| 20260505170049 | 18 | 194 | 1.6 | 11.3 | 0.00 | 0.00 | 0.00 | 70 | 1014.1 |
| 20260505165534 | 17 | 162 | 3.2 | 11.3 | 0.00 | 0.00 | 0.00 | 70 | 1014.0 |
| 20260505165034 | 17 | 198 | 3.2 | 11.3 | 0.00 | 0.00 | 0.00 | 71 | 1014.1 |
| 20260505164549 | 17 | 202 | 0.0 | 9.7 | 0.00 | 0.00 | 0.00 | 73 | 1014.1 |
| 20260505164035 | 16 | 149 | 1.6 | 8.0 | 0.00 | 0.00 | 0.00 | 74 | 1014.0 |
| 20260505163537 | 16 | 275 | 3.2 | 9.7 | 0.00 | 0.00 | 0.00 | 74 | 1014.0 |
| 20260505163045 | 16 | 173 | 1.6 | 9.7 | 0.00 | 0.00 | 0.00 | 76 | 1014.0 |
| 20260505162534 | 16 | 161 | 3.2 | 9.7 | 0.00 | 0.00 | 0.00 | 78 | 1014.1 |
| 20260505162035 | 15 | 217 | 3.2 | 6.4 | 0.00 | 0.00 | 0.00 | 77 | 1014.0 |
| 20260505161554 | 15 | 0 | 0.0 | 6.4 | 0.00 | 0.00 | 0.00 | 78 | 1014.1 |
| 20260505161035 | 15 | 274 | 1.6 | 6.4 | 0.00 | 0.00 | 0.00 | 78 | 1013.9 |
| 20260505160538 | 15 | 0 | 0.0 | 6.4 | 0.00 | 0.00 | 0.00 | 77 | 1013.9 |
| 20260505153043 | 13 | 0 | 0.0 | 4.8 | 0.00 | 0.00 | 0.00 | 85 | 1013.8 |
| 20260505152535 | 13 | 90 | 1.6 | 4.8 | 0.00 | 0.00 | 0.00 | 86 | 1013.8 |
| 20260505152034 | 13 | 0 | 0.0 | 4.8 | 0.00 | 0.00 | 0.00 | 88 | 1013.8 |
| 20260505151548 | 13 | 90 | 0.0 | 4.8 | 0.00 | 0.00 | 0.00 | 88 | 1013.6 |
| 20260505151034 | 12 | 0 | 0.0 | 4.8 | 0.00 | 0.00 | 0.00 | 88 | 1013.6 |
| 20260505150535 | 12 | 0 | 0.0 | 4.8 | 0.00 | 0.00 | 0.00 | 87 | 1013.7 |
| 20260505150105 | 12 | 90 | 1.6 | 4.8 | 0.00 | 0.00 | 0.00 | 88 | 1013.8 |
| 20260505140538 | 10 | 0 | 0.0 | 3.2 | 0.00 | 0.00 | 0.00 | 95 | 1013.4 |
| 20260505125037 | 10 | 330 | 1.6 | 3.2 | 0.00 | 0.00 | 0.00 | 95 | 1013.1 |
| 20260505124556 | 10 | 330 | 1.6 | 4.8 | 0.00 | 0.00 | 0.00 | 95 | 1013.0 |
| 20260505124034 | 10 | 330 | 1.6 | 4.8 | 0.00 | 0.00 | 0.00 | 95 | 1013.1 |
| 20260505123536 | 10 | 330 | 0.0 | 4.8 | 0.00 | 0.00 | 0.00 | 96 | 1013.1 |
| 20260505123055 | 10 | 330 | 1.6 | 3.2 | 0.00 | 0.00 | 0.00 | 95 | 1013.3 |
| 20260505122534 | 10 | 330 | 1.6 | 3.2 | 0.00 | 0.00 | 0.00 | 95 | 1013.2 |
| 20260505122034 | 10 | 330 | 0.0 | 3.2 | 0.00 | 0.00 | 0.00 | 95 | 1013.1 |
| 20260505121620 | 10 | 0 | 0.0 | 3.2 | 0.00 | 0.00 | 0.00 | 95 | 1013.2 |
| 20260505121034 | 10 | 330 | 0.0 | 1.6 | 0.00 | 0.00 | 0.00 | 95 | 1013.3 |
| 20260505120535 | 10 | 0 | 0.0 | 1.6 | 0.00 | 0.00 | 0.00 | 95 | 1013.2 |
| 20260505120053 | 9 | 330 | 0.0 | 1.6 | 0.00 | 0.00 | 0.00 | 95 | 1013.2 |
| 20260505115535 | 9 | 330 | 0.0 | 3.2 | 0.00 | 0.00 | 0.00 | 95 | 1013.1 |
| 20260505115037 | 9 | 330 | 0.0 | 3.2 | 0.00 | 0.00 | 0.00 | 95 | 1013.2 |
| 20260505114550 | 9 | 330 | 0.0 | 3.2 | 0.00 | 0.00 | 0.00 | 95 | 1013.1 |
| 20260505114034 | 9 | 330 | 0.0 | 4.8 | 0.00 | 0.00 | 0.00 | 95 | 1013.2 |
| 20260505113535 | 9 | 330 | 1.6 | 4.8 | 0.00 | 0.00 | 0.00 | 95 | 1013.2 |
| 20260505113105 | 9 | 330 | 1.6 | 4.8 | 0.00 | 0.00 | 0.00 | 94 | 1013.2 |
| 20260505112535 | 9 | 0 | 0.0 | 4.8 | 0.00 | 0.00 | 0.00 | 94 | 1013.2 |
| 20260505112037 | 9 | 330 | 1.6 | 4.8 | 0.00 | 0.00 | 0.00 | 94 | 1013.2 |
| 20260505111556 | 9 | 330 | 1.6 | 3.2 | 0.00 | 0.00 | 0.00 | 94 | 1013.2 |
| 20260505111041 | 9 | 330 | 1.6 | 3.2 | 0.00 | 0.00 | 0.00 | 93 | 1013.2 |
| 20260505110539 | 9 | 0 | 1.6 | 3.2 | 0.00 | 0.00 | 0.00 | 93 | 1013.3 |